User: anonymous   Login
Location: St. Malo Provincial Park
(49.3214°N, 96.9305°W)
Time: 12:08:09
(UTC-05:00)
Language:

Iridium 6 - Orbit

View from above orbital plane
View from above orbital plane
View from above satellite
View from above satellite

Ground track
Ground track

The orbit data is extracted from the following two-line orbital elements,

1 24794U 97020C   15214.51561180  .00000120  00000-0  35775-4 0  9998
2 24794 086.3941 245.0446 0002453 090.9663 269.1814 14.34219447955066
Epoch (UTC): 02 August 2015 12:22:28
Eccentricity: 0.0002453
inclination: 86.3941°
perigee height: 776 km
apogee height: 779 km
right ascension of ascending node: 245.0446°
argument of perigee: 90.9663°
revolutions per day: 14.34219447
mean anomaly at epoch: 269.1814°
orbit number at epoch: 95506

The dashed part of the orbit path shows where the satellite is in the earth's shadow,  

DLR